📊 Raw Sensor Data
Showing records 36751 to 36775 of 84,901 total
| ID | Distance (ft) | Battery V | Battery A | Int Temp (°F) | Int Humid (%) | Ext Temp (°F) | Solar V | RSSI | SNR | Time Stamp |
|---|---|---|---|---|---|---|---|---|---|---|
| 48163 | 15.1 | 4.11 | 5 | 100 | 43 | 92 | 5.20 | -70 | 8 | 08/03/2025 03:15 PM |
| 48162 | 15.1 | 3.94 | 0 | 100 | 43 | 89 | 5.10 | -69 | 8 | 08/03/2025 03:00 PM |
| 48161 | 15.1 | 3.94 | 5 | 100 | 42 | 90 | 5.10 | -71 | 8 | 08/03/2025 02:45 PM |
| 48160 | 15.1 | 4.10 | 5 | 99 | 42 | 88 | 5.10 | -69 | 8 | 08/03/2025 02:30 PM |
| 48159 | 15.1 | 4.12 | 5 | 99 | 41 | 90 | 5.20 | -70 | 8 | 08/03/2025 02:15 PM |
| 48158 | 15.1 | 3.94 | 5 | 98 | 41 | 89 | 5.10 | -70 | 8 | 08/03/2025 02:00 PM |
| 48157 | 15.1 | 4.11 | 0 | 95 | 41 | 88 | 5.10 | -71 | 7 | 08/03/2025 01:45 PM |
| 48156 | 15.1 | 3.94 | 0 | 93 | 42 | 86 | 5.10 | -71 | 8 | 08/03/2025 01:30 PM |
| 48155 | 15.1 | 3.96 | 5 | 91 | 43 | 84 | 5.10 | -69 | 8 | 08/03/2025 01:15 PM |
| 48154 | 15.2 | 3.94 | 5 | 90 | 43 | 84 | 5.10 | -70 | 8 | 08/03/2025 01:00 PM |
| 48153 | 15.2 | 3.94 | 5 | 89 | 43 | 82 | 5.10 | -70 | 8 | 08/03/2025 12:45 PM |
| 48152 | 15.2 | 3.94 | 0 | 88 | 43 | 84 | 5.10 | -71 | 8 | 08/03/2025 12:30 PM |
| 48151 | 15.2 | 3.94 | 0 | 87 | 43 | 83 | 5.10 | -69 | 8 | 08/03/2025 12:15 PM |
| 48150 | 15.2 | 3.94 | 0 | 86 | 43 | 82 | 5.10 | -70 | 8 | 08/03/2025 12:00 PM |
| 48149 | 15.2 | 4.05 | 5 | 85 | 43 | 85 | 5.10 | -70 | 7 | 08/03/2025 11:45 AM |
| 48148 | 15.2 | 3.94 | 0 | 84 | 43 | 85 | 5.10 | -71 | 8 | 08/03/2025 11:30 AM |
| 48147 | 15.2 | 3.99 | 5 | 83 | 42 | 84 | 5.10 | -69 | 8 | 08/03/2025 11:15 AM |
| 48146 | 15.1 | 3.94 | 5 | 82 | 42 | 83 | 5.10 | -70 | 8 | 08/03/2025 11:00 AM |
| 48145 | 15.2 | 4.04 | 0 | 81 | 42 | 81 | 5.10 | -71 | 7 | 08/03/2025 10:45 AM |
| 48144 | 15.2 | 3.94 | 5 | 79 | 42 | 83 | 5.10 | -71 | 7 | 08/03/2025 10:30 AM |
| 48143 | 15.2 | 3.94 | 0 | 77 | 43 | 80 | 5.10 | -68 | 8 | 08/03/2025 10:15 AM |
| 48142 | 15.2 | 3.94 | 5 | 75 | 43 | 78 | 5.10 | -71 | 8 | 08/03/2025 10:00 AM |
| 48141 | 15.3 | 3.94 | 5 | 74 | 43 | 79 | 5.10 | -70 | 8 | 08/03/2025 09:45 AM |
| 48140 | 15.3 | 3.94 | 5 | 73 | 43 | 77 | 5.10 | -69 | 8 | 08/03/2025 09:30 AM |
| 48139 | 15.3 | 3.95 | 0 | 72 | 44 | 76 | 5.10 | -71 | 8 | 08/03/2025 09:15 AM |